Ithaca, NY

7:53 AM EDT on July 28, 2017 (GMT -0400)
Tompkins County

Weather History for KITH - April, 2012

Change the Weather History Date:

Saturday, April 21, 2012

  Actual Average Record
Temperature  
Mean Temperature 47 °F -  
Max Temperature 59 °F 58 °F 81 °F (1957)
Min Temperature 35 °F 38 °F 0 °F (2011)
Degree Days  
Heating Degree Days 18    
Moisture  
Dew Point 43 °F    
Average Humidity 90    
Maximum Humidity 100    
Minimum Humidity 64    
Precipitation  
Precipitation 0.00 in - - ()
Sea Level Pressure  
Sea Level Pressure 29.81 in    
Wind  
Wind Speed 8 mph (NW)    
Max Wind Speed 15 mph    
Max Gust Speed -    
Visibility 6 miles    
Events Fog , Rain    
Averages and records for this station are not official NWS values.
T = Trace of Precipitation, MM = Missing Value Source: NWS Daily Summary

Daily Weather History Graph

Daily Weather History Graph

Search for Another Location

Airport or City:

Trip Planner

Search our weather history database for the weather conditions in past years. The results will help you decide how hot, cold, wet, or windy it might be!

Date:

Astronomy

Apr. 21, 2012 Rise Set
Actual Time 6:14 AM EDT 7:55 PM EDT
Civil Twilight 5:44 AM EDT 8:24 PM EDT
Nautical Twilight 5:08 AM EDT 9:01 PM EDT
Astronomical Twilight 4:30 AM EDT 9:40 PM EDT
Moon 6:08 AM EDT (4/21) 8:35 PM EDT (4/21)
Length of Visible Light 14h 40m
Length of Day
13h 40m
New Moon, 0% of the Moon is Illuminated
Apr 21
New Moon
Apr 29
First Quarter
May 5
Full
May 12
Last Quarter
May 20
New

Hourly Weather History & Observations

Time (EDT) Temp. Windchill Dew Point Humidity Pressure Visibility Wind Dir Wind Speed Gust Speed Precip Events Conditions
12:56 AM 59.0 °F - 46.9 °F 64% 29.72 in 10.0 mi SSE 11.5 mph - N/A   Clear
1:56 AM 57.9 °F - 47.8 °F 69% 29.71 in 10.0 mi South 13.8 mph - N/A   Clear
2:56 AM 57.9 °F - 48.9 °F 72% 29.70 in 10.0 mi South 12.7 mph - N/A   Clear
3:56 AM 52.9 °F - 47.8 °F 83% 29.72 in 10.0 mi Calm Calm - N/A   Mostly Cloudy
4:56 AM 55.9 °F - 48.9 °F 77% 29.71 in 10.0 mi SE 5.8 mph - N/A   Overcast
5:56 AM 54.9 °F - 50.0 °F 84% 29.71 in 10.0 mi Calm Calm - N/A   Scattered Clouds
6:25 AM 51.8 °F - 48.2 °F 88% 29.72 in 10.0 mi Calm Calm - N/A   Mostly Cloudy
6:56 AM 50.9 °F - 47.8 °F 89% 29.71 in 10.0 mi Calm Calm - N/A   Partly Cloudy
7:56 AM 54.9 °F - 46.9 °F 75% 29.73 in 10.0 mi NW 5.8 mph - N/A   Scattered Clouds
8:56 AM 50.9 °F - 45.0 °F 80% 29.76 in 10.0 mi WNW 15.0 mph - N/A   Overcast
9:26 AM 48.2 °F - 44.6 °F 87% 29.78 in - NW 12.7 mph - 0.00 in   Overcast
9:56 AM 47.8 °F - 43.0 °F 83% 29.78 in 7.0 mi NNW 5.8 mph - 0.00 in   Overcast
10:56 AM 45.9 °F 42.3 °F 43.0 °F 90% 29.81 in 7.0 mi West 6.9 mph - 0.00 in   Overcast
11:18 AM 44.6 °F 40.7 °F 42.8 °F 93% 29.81 in 3.0 mi WNW 6.9 mph - 0.00 in Rain Light Rain Showers
11:23 AM 44.6 °F 41.4 °F 42.8 °F 93% 29.80 in 2.5 mi NW 5.8 mph - 0.00 in Rain Light Rain Showers
11:56 AM 43.9 °F 38.8 °F 43.9 °F 100% 29.82 in 1.2 mi WNW 9.2 mph - 0.00 in Rain Light Rain
12:56 PM 45.9 °F 42.9 °F 45.0 °F 97% 29.80 in 2.5 mi NNW 5.8 mph - 0.00 in Rain Light Rain
1:32 PM 44.6 °F 39.7 °F 44.6 °F 100% 29.81 in 0.2 mi NW 9.2 mph - 0.00 in Fog Fog
1:56 PM 45.0 °F 39.7 °F 45.0 °F 100% 29.82 in 0.5 mi NW 10.4 mph - 0.00 in Fog Fog
2:08 PM 44.6 °F 39.2 °F 44.6 °F 100% 29.81 in 0.1 mi WNW 10.4 mph - N/A Fog Fog
2:56 PM 43.9 °F 38.3 °F 43.0 °F 97% 29.83 in 3.0 mi NW 10.4 mph - N/A   Overcast
3:56 PM 43.0 °F 38.2 °F 41.9 °F 96% 29.83 in 4.0 mi NW 8.1 mph - 0.00 in   Overcast
4:34 PM 42.8 °F 37.5 °F 39.2 °F 87% 29.83 in 4.0 mi NNW 9.2 mph - 0.00 in Rain Light Rain
4:56 PM 39.9 °F 33.4 °F 38.8 °F 96% 29.86 in 3.0 mi NNW 10.4 mph - 0.00 in Rain Light Rain
5:56 PM 38.8 °F 32.1 °F 37.9 °F 97% 29.87 in 3.0 mi NW 10.4 mph - 0.00 in Rain Rain
6:56 PM 37.9 °F 32.1 °F 36.9 °F 96% 29.90 in 4.0 mi NNW 8.1 mph - 0.00 in Rain Light Rain
7:56 PM 37.9 °F 33.5 °F 36.9 °F 96% 29.90 in 4.0 mi NNW 5.8 mph - 0.00 in Rain Rain
8:56 PM 37.9 °F 33.5 °F 36.9 °F 96% 29.92 in 4.0 mi NW 5.8 mph - 0.00 in Rain Light Rain
9:56 PM 36.9 °F 31.4 °F 36.9 °F 100% 29.93 in 4.0 mi NNW 6.9 mph - 0.00 in Rain Light Rain
10:56 PM 36.9 °F 31.4 °F 36.9 °F 100% 29.93 in 10.0 mi NNW 6.9 mph - 0.00 in Rain Light Rain
11:20 PM 37.4 °F 32.1 °F 37.4 °F 100% 29.89 in 9.0 mi NNW 6.9 mph - 0.00 in   Overcast
11:47 PM 35.6 °F 28.6 °F 35.6 °F 100% 29.90 in 10.0 mi NNW 9.2 mph - 0.00 in   Overcast
11:56 PM 36.0 °F 30.3 °F 34.9 °F 96% 29.93 in 10.0 mi North 6.9 mph - 0.00 in   Overcast